When you browse on this site, cookies collect data to enhance your experience and personalize the content and advertising you see.
Visit our Privacy Policy to learn more. By continuing to use the site, you agree to this use of cookies and data.
  • In Hungary
  • List of Countries
  • For 7 days
  • Water Temperature
  • Satellite Maps
  • Weather Map
  • News
  • Weather Widgets
  • user-avatar
    Login

    Hourly Weather Ertom

    Today, 21 November, Wednesday

    Time Temperature Precipitation Wind Pressure Humidity
    00:00 -2°C° 0.1 mm 6 mps 745 mmHg 76%
    01:00 -3°C° 0.2 mm 6 mps 745 mmHg 74%
    02:00 -4°C° 0.2 mm 6 mps 746 mmHg 73%
    03:00 -4°C° 0 mm 7 mps 747 mmHg 71%
    04:00 -5°C° 0.1 mm 6 mps 747 mmHg 70%
    05:00 -5°C° 0.1 mm 6 mps 747 mmHg 69%
    06:00 -6°C° 0.1 mm 6 mps 748 mmHg 68%
    07:00 -6°C° 0 mm 5 mps 748 mmHg 69%
    08:00 -6°C° 0 mm 5 mps 748 mmHg 70%
    09:00 -7°C° 0 mm 5 mps 748 mmHg 71%
    10:00 -7°C° 0.2 mm 5 mps 747 mmHg 68%
    11:00 -7°C° 0.2 mm 5 mps 747 mmHg 66%
    12:00 -6°C° 0.2 mm 5 mps 747 mmHg 64%
    13:00 -7°C° 0.1 mm 5 mps 747 mmHg 65%
    14:00 -7°C° 0.1 mm 4 mps 747 mmHg 67%
    15:00 -7°C° 0.1 mm 3 mps 747 mmHg 69%
    16:00 -7°C° 0 mm 3 mps 747 mmHg 71%
    17:00 -8°C° 0 mm 3 mps 747 mmHg 73%
    18:00 -8°C° 0 mm 3 mps 747 mmHg 75%
    19:00 -7°C° 0 mm 2 mps 746 mmHg 78%
    20:00 -7°C° 0 mm 2 mps 745 mmHg 81%
    21:00 -7°C° 0 mm 2 mps 745 mmHg 84%
    22:00 -7°C° 0 mm 2 mps 744 mmHg 85%
    23:00 -7°C° 0 mm 2 mps 744 mmHg 86%

    Tomorrow, 22 November, Thursday

    Time Temperature Precipitation Wind Pressure Humidity
    00:00 -6°C° 0 mm 1 mps 743 mmHg 87%
    01:00 -6°C° 0 mm 1 mps 742 mmHg 87%
    02:00 -6°C° 0 mm 1 mps 742 mmHg 87%
    03:00 -6°C° 0 mm 1 mps 741 mmHg 87%
    04:00 -7°C° 0 mm 1 mps 741 mmHg 88%
    05:00 -7°C° 0 mm 1 mps 740 mmHg 89%
    06:00 -7°C° 0 mm 1 mps 740 mmHg 90%
    07:00 -8°C° 0.1 mm 2 mps 739 mmHg 89%
    08:00 -7°C° 0.1 mm 2 mps 739 mmHg 88%
    09:00 -7°C° 0.1 mm 2 mps 738 mmHg 88%
    10:00 -7°C° 0.1 mm 3 mps 738 mmHg 85%
    11:00 -7°C° 0.1 mm 3 mps 738 mmHg 82%
    12:00 -7°C° 0.1 mm 4 mps 738 mmHg 80%
    13:00 -8°C° 0.1 mm 4 mps 738 mmHg 78%
    14:00 -8°C° 0.1 mm 4 mps 738 mmHg 75%
    15:00 -8°C° 0.1 mm 5 mps 738 mmHg 73%
    16:00 -8°C° 0.1 mm 5 mps 739 mmHg 73%
    17:00 -8°C° 0.1 mm 5 mps 739 mmHg 73%
    18:00 -10°C° 0.1 mm 5 mps 740 mmHg 74%
    19:00 -10°C° 0 mm 5 mps 740 mmHg 74%
    20:00 -10°C° 0 mm 5 mps 741 mmHg 74%
    21:00 -10°C° 0 mm 5 mps 742 mmHg 74%
    22:00 -10°C° 0 mm 5 mps 743 mmHg 75%
    23:00 -11°C° 0 mm 5 mps 744 mmHg 75%

    Day after tomorrow, 23 November, Friday

    Time Temperature Precipitation Wind Pressure Humidity
    00:00 -11°C° 0 mm 5 mps 745 mmHg 75%
    01:00 -11°C° 0 mm 4 mps 746 mmHg 76%
    02:00 -11°C° 0 mm 4 mps 746 mmHg 77%
    03:00 -12°C° 0 mm 3 mps 747 mmHg 78%
    04:00 -10°C° 0 mm 3 mps 747 mmHg 80%
    05:00 -10°C° 0 mm 3 mps 747 mmHg 81%
    06:00 -9°C° 0 mm 2 mps 748 mmHg 82%
    07:00 -9°C° 0.1 mm 3 mps 747 mmHg 83%
    08:00 -8°C° 0.1 mm 3 mps 747 mmHg 85%
    09:00 -9°C° 0.1 mm 4 mps 747 mmHg 86%
    10:00 -8°C° 0 mm 4 mps 747 mmHg 85%
    11:00 -8°C° 0 mm 4 mps 747 mmHg 85%
    12:00 -8°C° 0 mm 4 mps 747 mmHg 84%
    13:00 -7°C° 0 mm 3 mps 746 mmHg 87%
    14:00 -7°C° 0 mm 3 mps 746 mmHg 89%
    15:00 -7°C° 0 mm 3 mps 746 mmHg 92%
    16:00 -7°C° 0 mm 3 mps 746 mmHg 92%
    17:00 -6°C° 0 mm 2 mps 746 mmHg 92%
    18:00 -6°C° 0 mm 2 mps 745 mmHg 93%
    19:00 -6°C° 0.1 mm 2 mps 745 mmHg 93%
    20:00 -6°C° 0.1 mm 2 mps 745 mmHg 94%
    21:00 -4°C° 0.1 mm 1 mps 744 mmHg 94%
    22:00 -6°C° 0.1 mm 2 mps 744 mmHg 94%
    23:00 -6°C° 0.1 mm 2 mps 743 mmHg 95%

    24 November, Saturday

    Time Temperature Precipitation Wind Pressure Humidity
    00:00 -6°C° 0.1 mm 2 mps 743 mmHg 95%
    01:00 -6°C° 0.2 mm 2 mps 742 mmHg 94%
    02:00 -7°C° 0.2 mm 3 mps 741 mmHg 94%
    03:00 -7°C° 0.2 mm 3 mps 741 mmHg 93%
    04:00 -6°C° 0.5 mm 3 mps 740 mmHg 93%
    05:00 -6°C° 0.5 mm 3 mps 739 mmHg 93%
    06:00 -6°C° 0.5 mm 3 mps 738 mmHg 93%
    07:00 -5°C° 0.4 mm 3 mps 737 mmHg 94%
    08:00 -5°C° 0.4 mm 3 mps 737 mmHg 94%
    09:00 -4°C° 0.4 mm 2 mps 736 mmHg 95%
    10:00 -4°C° 0.3 mm 2 mps 736 mmHg 94%
    11:00 -4°C° 0.3 mm 2 mps 736 mmHg 94%
    12:00 -4°C° 0.3 mm 2 mps 736 mmHg 94%
    13:00 -4°C° 0.3 mm 2 mps 736 mmHg 94%
    14:00 -2°C° 0.3 mm 1 mps 736 mmHg 95%
    15:00 -2°C° 0.3 mm 1 mps 736 mmHg 96%
    16:00 -4°C° 0.3 mm 2 mps 736 mmHg 95%
    17:00 -5°C° 0.3 mm 2 mps 737 mmHg 95%
    18:00 -5°C° 0.3 mm 2 mps 737 mmHg 94%
    19:00 -6°C° 0.1 mm 2 mps 738 mmHg 94%
    20:00 -6°C° 0.1 mm 2 mps 738 mmHg 93%
    21:00 -7°C° 0.1 mm 2 mps 739 mmHg 93%
    22:00 -7°C° 0.1 mm 2 mps 739 mmHg 92%
    23:00 -8°C° 0.1 mm 2 mps 740 mmHg 92%

    25 November, Sunday

    Time Temperature Precipitation Wind Pressure Humidity
    00:00 -9°C° 0.1 mm 2 mps 741 mmHg 92%
    01:00 -9°C° 0 mm 2 mps 741 mmHg 91%
    02:00 -9°C° 0 mm 2 mps 742 mmHg 91%
    03:00 -9°C° 0 mm 2 mps 743 mmHg 91%
    04:00 -10°C° 0 mm 2 mps 743 mmHg 91%
    05:00 -10°C° 0 mm 2 mps 744 mmHg 90%
    06:00 -10°C° 0 mm 2 mps 744 mmHg 90%
    07:00 -10°C° 0 mm 1 mps 745 mmHg 91%
    08:00 -10°C° 0 mm 1 mps 746 mmHg 92%
    09:00 -11°C° 0 mm 1 mps 746 mmHg 93%
    10:00 -11°C° 0 mm 1 mps 747 mmHg 92%
    11:00 -11°C° 0 mm 1 mps 747 mmHg 90%
    12:00 -11°C° 0 mm 1 mps 748 mmHg 89%
    13:00 -12°C° 0 mm 1 mps 748 mmHg 90%
    14:00 -12°C° 0 mm 1 mps 748 mmHg 92%
    15:00 -13°C° 0 mm 1 mps 749 mmHg 93%
    16:00 -13°C° 0 mm 1 mps 749 mmHg 93%
    17:00 -13°C° 0 mm 1 mps 749 mmHg 93%
    18:00 -14°C° 0 mm 1 mps 749 mmHg 94%
    19:00 -14°C° 0 mm 1 mps 749 mmHg 94%
    20:00 -14°C° 0 mm 1 mps 749 mmHg 94%
    21:00 -14°C° 0 mm 1 mps 750 mmHg 94%
    22:00 -14°C° 0 mm 1 mps 750 mmHg 94%
    23:00 -15°C° 0 mm 1 mps 750 mmHg 94%

    26 November, Monday

    Time Temperature Precipitation Wind Pressure Humidity
    00:00 -15°C° 0 mm 1 mps 750 mmHg 94%
    01:00 -15°C° 0 mm 1 mps 750 mmHg 94%
    02:00 -15°C° 0 mm 1 mps 750 mmHg 94%
    03:00 -15°C° 0 mm 1 mps 750 mmHg 94%
    04:00 -15°C° 0 mm 1 mps 750 mmHg 94%
    05:00 -15°C° 0 mm 1 mps 750 mmHg 94%
    06:00 -16°C° 0 mm 1 mps 750 mmHg 94%
    07:00 -16°C° 0 mm 1 mps 750 mmHg 94%
    08:00 -16°C° 0 mm 1 mps 750 mmHg 94%
    09:00 -16°C° 0 mm 1 mps 750 mmHg 94%
    10:00 -16°C° 0 mm 1 mps 750 mmHg 93%
    11:00 -15°C° 0 mm 1 mps 750 mmHg 92%
    12:00 -15°C° 0 mm 1 mps 750 mmHg 91%
    13:00 -15°C° 0 mm 1 mps 750 mmHg 92%
    14:00 -15°C° 0 mm 1 mps 750 mmHg 94%
    15:00 -16°C° 0 mm 1 mps 750 mmHg 95%
    16:00 -16°C° 0 mm 1 mps 750 mmHg 96%
    17:00 -16°C° 0 mm 1 mps 750 mmHg 96%
    18:00 -16°C° 0 mm 1 mps 750 mmHg 96%
    19:00 -16°C° 0 mm 1 mps 750 mmHg 96%
    20:00 -16°C° 0 mm 1 mps 750 mmHg 96%
    21:00 -16°C° 0 mm 1 mps 750 mmHg 96%
    22:00 -16°C° 0 mm 1 mps 751 mmHg 96%
    23:00 -16°C° 0 mm 1 mps 751 mmHg 96%
    Show more